| time (UTC) | temp F | wind direction | speed knots | gust knots | rain 1hr in | rain 24hr in | rain mn in | humidity % | barometer mb |
| 20260505041555 | 81 | 108 | 17.4 | 33.0 | 0.00 | 0.00 | 0.00 | 82 | 1011.6 |
| 20260505041052 | 80 | 110 | 16.5 | 30.4 | 0.00 | 0.00 | 0.00 | 82 | 1011.6 |
| 20260505040549 | 80 | 108 | 19.1 | 34.8 | 0.00 | 0.00 | 0.00 | 82 | 1011.5 |
| 20260505040047 | 81 | 97 | 20.9 | 28.7 | 0.00 | 0.00 | 0.00 | 82 | 1011.7 |
| 20260505035542 | 81 | 86 | 25.2 | 34.8 | 0.00 | 0.00 | 0.00 | 82 | 1011.6 |
| 20260505035039 | 80 | 96 | 20.9 | 34.8 | 0.00 | 0.00 | 0.00 | 82 | 1011.5 |
| 20260505034536 | 81 | 120 | 19.1 | 33.0 | 0.00 | 0.00 | 0.00 | 82 | 1011.7 |
| 20260505034033 | 81 | 132 | 17.4 | 26.1 | 0.00 | 0.00 | 0.00 | 82 | 1011.7 |
| 20260505033530 | 81 | 127 | 16.5 | 28.7 | 0.00 | 0.00 | 0.00 | 82 | 1011.7 |
| 20260505033028 | 81 | 101 | 22.6 | 39.1 | 0.00 | 0.00 | 0.00 | 82 | 1011.8 |
| 20260505032525 | 81 | 104 | 18.2 | 30.4 | 0.00 | 0.00 | 0.00 | 82 | 1011.9 |
| 20260505032022 | 81 | 107 | 19.1 | 26.1 | 0.00 | 0.00 | 0.00 | 82 | 1011.8 |
| 20260505031519 | 81 | 128 | 26.9 | 37.4 | 0.00 | 0.00 | 0.00 | 82 | 1011.7 |
| 20260505031015 | 81 | 145 | 24.3 | 33.0 | 0.00 | 0.00 | 0.00 | 82 | 1011.8 |
| 20260505030512 | 81 | 107 | 19.1 | 28.7 | 0.00 | 0.00 | 0.00 | 82 | 1011.6 |
| 20260505030008 | 81 | 114 | 18.2 | 39.1 | 0.00 | 0.00 | 0.00 | 82 | 1011.7 |
| 20260505025504 | 81 | 122 | 21.7 | 34.8 | 0.00 | 0.00 | 0.00 | 82 | 1011.6 |
| 20260505025004 | 81 | 118 | 17.4 | 28.7 | 0.00 | 0.00 | 0.00 | 82 | 1011.7 |
| 20260505024500 | 81 | 112 | 26.1 | 37.4 | 0.00 | 0.00 | 0.00 | 81 | 1011.8 |
| 20260505023957 | 81 | 108 | 23.5 | 33.0 | 0.00 | 0.00 | 0.00 | 81 | 1011.6 |
| 20260505023454 | 81 | 137 | 13.9 | 26.1 | 0.00 | 0.00 | 0.00 | 82 | 1011.7 |
| 20260505022952 | 81 | 103 | 21.7 | 34.8 | 0.00 | 0.00 | 0.00 | 81 | 1011.6 |
| 20260505022449 | 81 | 120 | 21.7 | 33.0 | 0.00 | 0.00 | 0.00 | 81 | 1011.5 |
| 20260505021946 | 81 | 108 | 15.6 | 26.1 | 0.00 | 0.00 | 0.00 | 81 | 1011.5 |
| 20260505021442 | 81 | 129 | 16.5 | 28.7 | 0.00 | 0.00 | 0.00 | 81 | 1011.4 |
| 20260505020938 | 81 | 109 | 22.6 | 28.7 | 0.00 | 0.00 | 0.00 | 80 | 1011.5 |
| 20260505020433 | 81 | 119 | 20.9 | 33.0 | 0.00 | 0.00 | 0.00 | 80 | 1011.3 |
| 20260505015931 | 81 | 184 | 20.9 | 28.7 | 0.00 | 0.00 | 0.00 | 80 | 1011.4 |
| 20260505015428 | 81 | 102 | 23.5 | 28.7 | 0.00 | 0.00 | 0.00 | 80 | 1011.4 |
| 20260505014925 | 81 | 131 | 25.2 | 30.4 | 0.00 | 0.00 | 0.00 | 80 | 1011.3 |
| 20260505014421 | 81 | 120 | 22.6 | 33.0 | 0.00 | 0.00 | 0.00 | 80 | 1011.1 |
| 20260505013919 | 81 | 114 | 23.5 | 34.8 | 0.00 | 0.00 | 0.00 | 79 | 1011.0 |
| 20260505013416 | 81 | 97 | 24.3 | 41.7 | 0.00 | 0.00 | 0.00 | 79 | 1010.9 |
| 20260505012914 | 81 | 105 | 19.1 | 33.0 | 0.00 | 0.00 | 0.00 | 79 | 1010.9 |
| 20260505012411 | 81 | 125 | 21.7 | 30.4 | 0.00 | 0.00 | 0.00 | 79 | 1010.8 |
| 20260505011907 | 81 | 123 | 24.3 | 33.0 | 0.00 | 0.00 | 0.00 | 79 | 1010.6 |
| 20260505011404 | 81 | 117 | 22.6 | 24.3 | 0.00 | 0.00 | 0.00 | 79 | 1010.6 |
| 20260505010901 | 81 | 111 | 24.3 | 39.1 | 0.00 | 0.00 | 0.00 | 79 | 1010.5 |
| 20260505010356 | 81 | 109 | 24.3 | 33.0 | 0.00 | 0.00 | 0.00 | 79 | 1010.4 |
| 20260505005853 | 81 | 117 | 25.2 | 37.4 | 0.00 | 0.00 | 0.00 | 78 | 1010.6 |
| 20260505005349 | 81 | 136 | 22.6 | 41.7 | 0.00 | 0.00 | 0.00 | 78 | 1010.5 |
| 20260505004847 | 81 | 124 | 27.8 | 37.4 | 0.00 | 0.00 | 0.00 | 78 | 1010.5 |
| 20260505004343 | 81 | 127 | 33.0 | 37.4 | 0.00 | 0.00 | 0.00 | 79 | 1010.4 |
| 20260505003841 | 81 | 113 | 22.6 | 34.8 | 0.00 | 0.00 | 0.00 | 79 | 1010.3 |
| 20260505003338 | 81 | 118 | 26.9 | 39.1 | 0.00 | 0.00 | 0.00 | 78 | 1010.6 |
| 20260505002834 | 81 | 109 | 30.4 | 41.7 | 0.00 | 0.00 | 0.00 | 79 | 1010.3 |
| 20260505002331 | 81 | 110 | 29.5 | 43.4 | 0.00 | 0.00 | 0.00 | 78 | 1010.4 |
| 20260505001829 | 81 | 95 | 31.3 | 34.8 | 0.00 | 0.00 | 0.00 | 78 | 1010.4 |
| 20260505001326 | 81 | 100 | 17.4 | 33.0 | 0.00 | 0.00 | 0.00 | 78 | 1010.4 |
| 20260505000823 | 81 | 138 | 27.8 | 34.8 | 0.00 | 0.00 | 0.00 | 78 | 1010.3 |
| 20260505000321 | 81 | 124 | 28.7 | 33.0 | 0.00 | 0.00 | 0.00 | 79 | 1010.5 |
| 20260504235817 | 81 | 95 | 24.3 | 37.4 | 0.00 | 0.00 | 0.00 | 79 | 1010.3 |
| 20260504235314 | 82 | 126 | 16.5 | 39.1 | 0.00 | 0.00 | 0.00 | 79 | 1010.3 |
| 20260504234811 | 82 | 102 | 20.9 | 39.1 | 0.00 | 0.00 | 0.00 | 79 | 1010.3 |
| 20260504234309 | 81 | 97 | 26.1 | 39.1 | 0.00 | 0.00 | 0.00 | 79 | 1010.3 |
| 20260504233805 | 82 | 143 | 28.7 | 34.8 | 0.00 | 0.00 | 0.00 | 79 | 1010.0 |
| 20260504233300 | 82 | 105 | 21.7 | 28.7 | 0.00 | 0.00 | 0.00 | 79 | 1010.1 |
| 20260504232758 | 82 | 110 | 23.5 | 30.4 | 0.00 | 0.00 | 0.00 | 79 | 1010.1 |
| 20260504232255 | 82 | 106 | 16.5 | 30.4 | 0.00 | 0.00 | 0.00 | 78 | 1009.9 |
| 20260504231751 | 82 | 121 | 20.9 | 37.4 | 0.00 | 0.00 | 0.00 | 78 | 1010.0 |
| 20260504231248 | 82 | 97 | 18.2 | 34.8 | 0.00 | 0.00 | 0.00 | 78 | 1009.9 |
| 20260504230744 | 82 | 142 | 25.2 | 33.0 | 0.00 | 0.00 | 0.00 | 78 | 1009.9 |
| 20260504230242 | 82 | 115 | 18.2 | 33.0 | 0.00 | 0.00 | 0.00 | 78 | 1009.7 |
| 20260504225741 | 82 | 121 | 23.5 | 34.8 | 0.00 | 0.00 | 0.00 | 78 | 1009.7 |
| 20260504225237 | 82 | 126 | 20.0 | 34.8 | 0.00 | 0.00 | 0.00 | 77 | 1010.0 |
| 20260504224734 | 82 | 98 | 18.2 | 33.0 | 0.00 | 0.00 | 0.00 | 77 | 1009.7 |
| 20260504224231 | 82 | 78 | 16.5 | 26.1 | 0.00 | 0.00 | 0.00 | 77 | 1009.6 |
| 20260504223727 | 82 | 116 | 26.1 | 34.8 | 0.00 | 0.00 | 0.00 | 77 | 1009.5 |
| 20260504223223 | 83 | 105 | 17.4 | 28.7 | 0.00 | 0.00 | 0.00 | 77 | 1009.5 |
| 20260504222720 | 83 | 119 | 18.2 | 34.8 | 0.00 | 0.00 | 0.00 | 76 | 1009.5 |
| 20260504222217 | 83 | 96 | 20.0 | 28.7 | 0.00 | 0.00 | 0.00 | 76 | 1009.6 |
| 20260504221714 | 83 | 115 | 16.5 | 28.7 | 0.00 | 0.00 | 0.00 | 76 | 1009.5 |
| 20260504221211 | 83 | 149 | 15.6 | 37.4 | 0.00 | 0.00 | 0.00 | 76 | 1009.5 |
| 20260504220708 | 83 | 97 | 9.6 | 33.0 | 0.00 | 0.00 | 0.00 | 76 | 1009.2 |
| 20260504220206 | 83 | 101 | 19.1 | 26.1 | 0.00 | 0.00 | 0.00 | 76 | 1009.4 |
| 20260504215702 | 83 | 109 | 17.4 | 26.1 | 0.00 | 0.00 | 0.00 | 76 | 1009.3 |
| 20260504215159 | 83 | 114 | 18.2 | 28.7 | 0.00 | 0.00 | 0.00 | 76 | 1009.1 |
| 20260504214655 | 84 | 134 | 19.1 | 33.0 | 0.00 | 0.00 | 0.00 | 76 | 1009.2 |
| 20260504214151 | 84 | 119 | 26.1 | 41.7 | 0.00 | 0.00 | 0.00 | 75 | 1009.2 |
| 20260504213648 | 84 | 107 | 20.9 | 26.1 | 0.00 | 0.00 | 0.00 | 76 | 1009.3 |
| 20260504213145 | 84 | 130 | 23.5 | 34.8 | 0.00 | 0.00 | 0.00 | 76 | 1009.2 |
| 20260504212641 | 84 | 124 | 23.5 | 30.4 | 0.00 | 0.00 | 0.00 | 75 | 1009.1 |
| 20260504212138 | 84 | 113 | 20.0 | 33.0 | 0.00 | 0.00 | 0.00 | 75 | 1009.0 |
| 20260504211636 | 84 | 128 | 24.3 | 34.8 | 0.00 | 0.00 | 0.00 | 74 | 1009.2 |
| 20260504211132 | 84 | 120 | 18.2 | 30.4 | 0.00 | 0.00 | 0.00 | 75 | 1008.9 |
| 20260504210630 | 84 | 118 | 20.9 | 39.1 | 0.00 | 0.00 | 0.00 | 74 | 1008.9 |
| 20260504210126 | 85 | 115 | 16.5 | 30.4 | 0.00 | 0.00 | 0.00 | 75 | 1009.0 |
| 20260504205623 | 85 | 108 | 19.1 | 37.4 | 0.00 | 0.00 | 0.00 | 74 | 1009.0 |
| 20260504205121 | 85 | 105 | 26.9 | 37.4 | 0.00 | 0.00 | 0.00 | 73 | 1009.3 |
| 20260504204619 | 85 | 137 | 14.8 | 24.3 | 0.00 | 0.00 | 0.00 | 74 | 1009.3 |
| 20260504204118 | 85 | 144 | 21.7 | 30.4 | 0.00 | 0.00 | 0.00 | 74 | 1009.2 |
| 20260504203616 | 85 | 109 | 19.1 | 33.0 | 0.00 | 0.00 | 0.00 | 74 | 1009.2 |
| 20260504203113 | 85 | 124 | 17.4 | 43.4 | 0.00 | 0.00 | 0.00 | 74 | 1009.4 |
| 20260504202608 | 85 | 119 | 26.9 | 39.1 | 0.00 | 0.00 | 0.00 | 73 | 1009.3 |
| 20260504202105 | 85 | 106 | 25.2 | 39.1 | 0.00 | 0.00 | 0.00 | 73 | 1009.3 |
| 20260504201602 | 85 | 145 | 25.2 | 39.1 | 0.00 | 0.00 | 0.00 | 73 | 1009.3 |
| 20260504201100 | 85 | 106 | 27.8 | 37.4 | 0.00 | 0.00 | 0.00 | 74 | 1009.3 |
| 20260504200556 | 85 | 122 | 26.1 | 34.8 | 0.00 | 0.00 | 0.00 | 73 | 1009.5 |
| 20260504200053 | 85 | 115 | 29.5 | 41.7 | 0.00 | 0.00 | 0.00 | 73 | 1009.4 |
| 20260504195549 | 85 | 101 | 20.9 | 43.4 | 0.00 | 0.00 | 0.00 | 73 | 1009.5 |
| 20260504195046 | 86 | 158 | 23.5 | 33.0 | 0.00 | 0.00 | 0.00 | 71 | 1009.5 |
| 20260504194542 | 86 | 133 | 20.9 | 34.8 | 0.00 | 0.00 | 0.00 | 73 | 1009.6 |
| 20260504194038 | 86 | 137 | 24.3 | 34.8 | 0.00 | 0.00 | 0.00 | 73 | 1009.7 |
| 20260504193535 | 86 | 123 | 29.5 | 37.4 | 0.00 | 0.00 | 0.00 | 72 | 1009.6 |
| 20260504193034 | 86 | 156 | 24.3 | 39.1 | 0.00 | 0.00 | 0.00 | 72 | 1009.8 |
| 20260504192531 | 86 | 88 | 24.3 | 33.0 | 0.00 | 0.00 | 0.00 | 72 | 1009.9 |
| 20260504192029 | 86 | 122 | 26.9 | 34.8 | 0.00 | 0.00 | 0.00 | 71 | 1009.9 |
| 20260504191527 | 86 | 131 | 22.6 | 41.7 | 0.00 | 0.00 | 0.00 | 72 | 1010.0 |
| 20260504191023 | 86 | 132 | 25.2 | 37.4 | 0.00 | 0.00 | 0.00 | 72 | 1010.0 |
| 20260504190519 | 86 | 127 | 32.2 | 43.4 | 0.00 | 0.00 | 0.00 | 71 | 1010.1 |
| 20260504190015 | 86 | 99 | 15.6 | 33.0 | 0.00 | 0.00 | 0.00 | 72 | 1010.2 |
| 20260504185512 | 87 | 164 | 17.4 | 30.4 | 0.00 | 0.00 | 0.00 | 72 | 1010.2 |
| 20260504185009 | 87 | 109 | 23.5 | 37.4 | 0.00 | 0.00 | 0.00 | 71 | 1010.0 |
| 20260504184509 | 86 | 107 | 20.0 | 33.0 | 0.00 | 0.00 | 0.00 | 72 | 1010.1 |
| 20260504184005 | 86 | 112 | 27.8 | 39.1 | 0.00 | 0.00 | 0.00 | 72 | 1010.2 |
| 20260504183503 | 87 | 130 | 24.3 | 34.8 | 0.00 | 0.00 | 0.00 | 71 | 1010.5 |
| 20260504183000 | 87 | 126 | 25.2 | 39.1 | 0.00 | 0.00 | 0.00 | 71 | 1010.4 |
| 20260504182457 | 87 | 118 | 20.0 | 28.7 | 0.00 | 0.00 | 0.00 | 70 | 1010.3 |
| 20260504181955 | 87 | 110 | 20.0 | 43.4 | 0.00 | 0.00 | 0.00 | 70 | 1010.5 |
| 20260504181451 | 87 | 113 | 24.3 | 43.4 | 0.00 | 0.00 | 0.00 | 70 | 1010.6 |
| 20260504180950 | 87 | 118 | 23.5 | 28.7 | 0.00 | 0.00 | 0.00 | 69 | 1010.7 |
| 20260504180449 | 87 | 67 | 20.0 | 39.1 | 0.00 | 0.00 | 0.00 | 70 | 1010.8 |
| 20260504175947 | 87 | 128 | 21.7 | 30.4 | 0.00 | 0.00 | 0.00 | 70 | 1010.8 |
| 20260504175443 | 86 | 131 | 26.1 | 34.8 | 0.00 | 0.00 | 0.00 | 71 | 1010.9 |
| 20260504174941 | 87 | 117 | 24.3 | 39.1 | 0.00 | 0.00 | 0.00 | 70 | 1010.9 |
| 20260504174438 | 87 | 127 | 20.9 | 39.1 | 0.00 | 0.00 | 0.00 | 71 | 1011.3 |
| 20260504173936 | 87 | 117 | 32.2 | 39.1 | 0.00 | 0.00 | 0.00 | 70 | 1011.3 |
| 20260504173432 | 86 | 128 | 20.0 | 43.4 | 0.00 | 0.00 | 0.00 | 71 | 1011.2 |
| 20260504172930 | 87 | 115 | 26.1 | 39.1 | 0.00 | 0.00 | 0.00 | 69 | 1011.5 |
| 20260504172425 | 86 | 117 | 23.5 | 34.8 | 0.00 | 0.00 | 0.00 | 71 | 1011.4 |
| 20260504171922 | 86 | 131 | 27.8 | 47.8 | 0.00 | 0.00 | 0.00 | 69 | 1011.5 |
| 20260504171419 | 87 | 107 | 28.7 | 39.1 | 0.00 | 0.00 | 0.00 | 69 | 1011.7 |
| 20260504170916 | 87 | 129 | 28.7 | 39.1 | 0.00 | 0.00 | 0.00 | 69 | 1011.8 |
| 20260504170412 | 87 | 120 | 26.9 | 39.1 | 0.00 | 0.00 | 0.00 | 70 | 1011.9 |
| 20260504160331 | 87 | 112 | 27.8 | 37.4 | 0.00 | 0.00 | 0.00 | 69 | 1012.9 |
| 20260504150756 | 86 | 130 | 26.9 | 37.4 | 0.00 | 0.00 | 0.00 | 69 | 1013.0 |
| 20260504150253 | 86 | 126 | 22.6 | 33.0 | 0.00 | 0.00 | 0.00 | 70 | 1013.3 |
| 20260504141223 | 85 | 106 | 32.2 | 47.8 | 0.00 | 0.00 | 0.00 | 70 | 1013.4 |
| 20260504140719 | 86 | 133 | 24.3 | 39.1 | 0.00 | 0.00 | 0.00 | 69 | 1013.6 |
| 20260504140214 | 85 | 85 | 17.4 | 30.4 | 0.00 | 0.00 | 0.00 | 70 | 1013.2 |
| 20260504130643 | 84 | 130 | 20.0 | 33.0 | 0.00 | 0.00 | 0.00 | 74 | 1013.1 |
| 20260504130140 | 84 | 128 | 20.9 | 34.8 | 0.00 | 0.00 | 0.00 | 74 | 1012.9 |
| 20260504120104 | 82 | 127 | 20.0 | 37.4 | 0.00 | 0.00 | 0.00 | 76 | 1012.7 |
| 20260504110531 | 81 | 104 | 15.6 | 24.3 | 0.00 | 0.00 | 0.00 | 79 | 1012.1 |
| 20260504100453 | 80 | 110 | 12.2 | 21.7 | 0.00 | 0.00 | 0.00 | 78 | 1011.7 |
| 20260504081846 | 80 | 104 | 21.7 | 28.7 | 0.00 | 0.00 | 0.00 | 78 | 1010.5 |
| 20260504081343 | 80 | 110 | 16.5 | 30.4 | 0.00 | 0.00 | 0.00 | 78 | 1010.6 |
| 20260504080839 | 80 | 138 | 18.2 | 33.0 | 0.00 | 0.00 | 0.00 | 77 | 1010.2 |
| 20260504080336 | 80 | 123 | 20.9 | 33.0 | 0.00 | 0.00 | 0.00 | 77 | 1010.4 |
| 20260504070303 | 80 | 109 | 20.0 | 33.0 | 0.00 | 0.00 | 0.00 | 78 | 1010.7 |
| 20260504060224 | 80 | 113 | 16.5 | 33.0 | 0.00 | 0.00 | 0.00 | 79 | 1011.3 |
| 20260504050651 | 80 | 114 | 24.3 | 30.4 | 0.00 | 0.00 | 0.00 | 79 | 1011.7 |
| 20260504050148 | 80 | 127 | 15.6 | 24.3 | 0.00 | 0.00 | 0.00 | 80 | 1011.6 |